Location: Erdweis
(48.5167°N, 15.3500°E)
Time: 11:38:07
(UTC+00:00)

Meteor 1-24 Rocket - Pass Details

Date: 18 September 2020
Orbit: 790 x 927 km, 81.2° (Epoch: 24 October)

Event Time Altitude Azimuth Distance (km) Brightness Sun altitude
Rises 19:05:31 0° 351° (N) 3,343 7.3 -20.1°
Reaches altitude 10° 19:07:57 10° 357° (N) 2,423 6.5 -20.5°
Maximum altitude 19:13:17 51° 73° (ENE) 1,047 3.9 -21.3°
Enters shadow 19:14:23 45° 110° (ESE) 1,143 3.9 -21.4°
